Starlink 5356

operational
NORAD ID: 56418 Int'l Des: 2023-061 Owner: SPXS Country: US Constellation: starlink
LEOCIRCULAR

关于 Starlink 5356

正在加载描述...

实时位置

正在加载3D地球...

即将过境

高度历史

Altitude vs Time

uPlot chart will show altitude changes over time

两行轨道根数

1 56418U 23061AW 26062.45093006 -.00000775 00000-0 -42289-4 0 9999
2 56418 42.9964 205.5671 0001637 181.5353 178.5484 15.02530049156119
Epoch: Mar 3, 2026 • Age: 36 hours

当前状态

高度 559.2 km
速度 7.58 km/s
星下点 11.17°N, 136.69°W
发射日期 May 4, 2023
运行时间 2.8 years
类型 internet

技术详情

分类 Payload
质量 305.00 kg
干质量 290.00 kg
总质量 305.00 kg
长度 0.20 m
直径 2.80 m
跨度 9.00 m
形状 Box + pan
制造商 SPXS
平台类型 Starlink
阶段状态 In Orbit
所有者/国家 SPXS/US

大型星座

Loading constellations...